DW2963 Weather Reports


time (UTC)temp
F
wind
direction
speed
knots
gust
knots
rain 1hr
in
rain 24hr
in
rain mn
in
humidity
%
barometer
mb
20260509134552 49 225 7.8 16.5 0.00 0.00 0.00 92 1002.0
20260509133059 48 247 11.3 20.9 0.00 0.00 0.00 93 1001.8
20260509131549 49 208 10.4 20.9 0.00 0.00 0.00 93 1001.8
20260509130053 49 235 11.3 22.6 0.00 0.00 0.00 93 1001.7
20260509124540 48 209 10.4 17.4 0.00 0.00 0.00 93 1001.9
20260509123034 48 240 11.3 21.7 0.00 0.00 0.00 94 1001.6
20260509121549 48 260 10.4 18.2 0.00 0.00 0.00 95 1001.7
20260509120030 48 207 12.2 20.0 0.00 0.00 0.00 95 1001.7
20260509114547 48 238 12.2 20.0 0.00 0.00 0.00 95 1001.5
20260509113028 48 210 11.3 20.9 0.00 0.00 0.00 94 1001.5
20260509111525 48 213 11.3 18.2 0.00 0.00 0.00 95 1001.4
20260509110125 48 225 13.0 18.2 0.00 0.00 0.00 94 1001.3
20260509104505 48 232 12.2 19.1 0.00 0.00 0.00 95 1001.3
20260509103002 48 198 13.0 19.1 0.00 0.00 0.00 94 1001.3
20260509101600 49 215 15.6 19.1 0.00 0.00 0.00 94 1001.4
20260509100058 49 235 12.2 20.9 0.00 0.00 0.00 94 1001.5
20260509094601 49 205 13.9 21.7 0.00 0.00 0.00 94 1001.7
20260509093055 49 234 14.8 20.9 0.00 0.00 0.00 94 1001.7
20260509091559 50 199 15.6 22.6 0.00 0.00 0.00 93 1001.9
20260509090104 49 211 14.8 19.1 0.00 0.00 0.00 94 1001.9
20260509084544 50 212 16.5 20.0 0.00 0.00 0.00 93 1002.0
20260509083046 49 225 14.8 18.2 0.00 0.00 0.00 93 1002.3
20260509081633 49 216 13.9 19.1 0.00 0.00 0.00 93 1002.6
20260509080034 49 207 13.0 20.9 0.00 0.00 0.00 92 1002.9
20260509074535 49 198 12.2 20.0 0.00 0.00 0.00 92 1003.3
20260509073027 49 240 11.3 17.4 0.00 0.00 0.00 92 1003.3
20260509071525 49 201 11.3 19.1 0.00 0.00 0.00 91 1003.5
20260509070026 50 194 13.0 19.1 0.00 0.00 0.00 90 1003.8
20260509064506 51 210 14.8 19.1 0.00 0.00 0.00 89 1004.1
20260509063003 51 211 13.9 22.6 0.00 0.00 0.00 87 1004.1
20260509061602 52 200 13.9 20.0 0.00 0.00 0.00 85 1004.3
20260509060058 52 194 12.2 17.4 0.00 0.00 0.00 83 1004.4
20260509054556 52 184 11.3 15.6 0.00 0.00 0.00 82 1004.6
20260509053052 53 200 10.4 17.4 0.00 0.00 0.00 80 1004.8
20260509051552 53 183 10.4 14.8 0.00 0.00 0.00 79 1004.8
20260509050058 53 196 10.4 16.5 0.00 0.00 0.00 79 1004.7
20260509043040 55 190 10.4 18.2 0.00 0.00 0.00 70 1005.0
20260509041530 56 198 11.3 18.2 0.00 0.00 0.00 67 1005.1
20260509040027 55 197 9.6 18.2 0.00 0.00 0.00 65 1005.4
20260509034526 55 194 11.3 19.1 0.00 0.00 0.00 63 1005.5
20260509033034 55 202 10.4 16.5 0.00 0.00 0.00 60 1005.8
20260509031527 54 196 12.2 16.5 0.00 0.00 0.00 62 1005.9
20260509030022 54 179 11.3 17.4 0.00 0.00 0.00 62 1006.3
20260509024509 54 173 10.4 15.6 0.00 0.00 0.00 59 1006.4
20260509023008 54 177 10.4 16.5 0.00 0.00 0.00 61 1006.4
20260509021507 54 187 10.4 15.6 0.00 0.00 0.00 59 1006.5
20260509020006 54 175 9.6 14.8 0.00 0.00 0.00 54 1006.5
20260509014505 55 186 9.6 14.8 0.00 0.00 0.00 53 1006.5
20260509013004 55 184 8.7 12.2 0.00 0.00 0.00 63 1006.6
20260509011506 56 182 7.0 10.4 0.00 0.00 0.00 30 1006.3
20260509010002 56 186 7.0 12.2 0.00 0.00 0.00 36 1006.2
20260509004556 57 180 7.0 12.2 0.00 0.00 0.00 38 1006.2
20260509003046 57 196 5.2 13.0 0.00 0.00 0.00 33 1006.4
20260509001541 56 182 8.7 16.5 0.00 0.00 0.00 43 1006.6
20260509000044 55 200 10.4 16.5 0.00 0.00 0.00 55 1006.9
20260508234534 55 191 11.3 16.5 0.00 0.00 0.00 55 1007.0
20260508233033 55 196 11.3 15.6 0.00 0.00 0.00 50 1007.1
20260508231528 54 165 10.4 13.9 0.00 0.00 0.00 60 1007.3
20260508230026 54 185 10.4 13.9 0.00 0.00 0.00 62 1007.5
20260508224520 53 202 9.6 13.9 0.00 0.00 0.00 66 1007.6
20260508223004 53 197 8.7 13.9 0.00 0.00 0.00 69 1007.9
20260508221557 53 192 7.8 12.2 0.00 0.00 0.00 71 1008.0
20260508220047 53 207 8.7 12.2 0.00 0.00 0.00 72 1008.1
20260508214549 53 201 9.6 12.2 0.00 0.00 0.00 70 1008.2
20260508213043 53 186 8.7 12.2 0.00 0.00 0.00 72 1008.2
20260508211547 52 177 8.7 12.2 0.00 0.00 0.00 75 1008.4
20260508210040 51 198 8.7 12.2 0.00 0.00 0.00 79 1008.6
20260508204537 51 194 8.7 11.3 0.00 0.00 0.00 79 1008.9
20260508203036 51 208 10.4 12.2 0.00 0.00 0.00 80 1009.1
20260508201519 51 202 8.7 11.3 0.00 0.00 0.00 80 1009.3
20260508200029 51 205 9.6 12.2 0.00 0.00 0.00 82 1009.5
20260508194516 51 204 10.4 13.0 0.00 0.00 0.00 85 1009.6
20260508193014 50 204 9.6 13.0 0.00 0.00 0.00 86 1009.9
20260508191513 50 201 9.6 12.2 0.00 0.00 0.00 85 1010.0
20260508190018 50 207 9.6 12.2 0.00 0.00 0.00 84 1010.1
20260508184522 50 206 8.7 11.3 0.00 0.00 0.00 83 1010.3
20260508183010 51 211 7.8 9.6 0.00 0.00 0.00 83 1010.3
20260508181509 51 205 7.8 10.4 0.00 0.00 0.00 84 1010.5
20260508180055 51 196 7.0 10.4 0.00 0.00 0.00 83 1010.7
20260508174553 50 211 7.8 9.6 0.00 0.00 0.00 85 1010.9
20260508173053 51 205 7.0 9.6 0.00 0.00 0.00 84 1011.2
20260508171553 50 207 7.0 9.6 0.00 0.00 0.00 84 1011.3
20260508170049 50 207 8.7 10.4 0.00 0.00 0.00 84 1011.6
20260508164548 50 211 9.6 11.3 0.00 0.00 0.00 84 1011.9
20260508163049 50 204 7.8 12.2 0.00 0.00 0.00 84 1011.8
20260508161546 50 204 8.7 10.4 0.00 0.00 0.00 84 1012.1
20260508160045 50 215 8.7 11.3 0.00 0.00 0.00 84 1012.0
20260508154543 49 207 8.7 11.3 0.00 0.00 0.00 83 1012.0
20260508153029 49 209 9.6 12.2 0.00 0.00 0.00 84 1012.0
20260508151528 48 205 10.4 13.0 0.00 0.00 0.00 83 1012.1
20260508150033 48 215 10.4 14.8 0.00 0.00 0.00 85 1012.1
20260508144625 48 205 9.6 12.2 0.00 0.00 0.00 82 1012.1
20260508143034 49 204 7.8 11.3 0.00 0.00 0.00 81 1012.0
20260508141524 48 217 9.6 11.3 0.00 0.00 0.00 80 1012.3
20260508140015 49 207 6.1 8.7 0.00 0.00 0.00 80 1012.1